Year,Month,Day,Hour,Minute,Value (Times are PST for temperature in C)
2015,10,15,00,00,6.50
2015,10,15,00,01,6.50
2015,10,15,00,02,6.50
2015,10,15,00,03,6.50
2015,10,15,00,04,6.60
2015,10,15,00,05,6.60
2015,10,15,00,06,6.70
2015,10,15,00,07,6.70
2015,10,15,00,08,6.70
2015,10,15,00,09,6.70
2015,10,15,00,10,6.70
2015,10,15,00,11,6.70
2015,10,15,00,12,6.70
2015,10,15,00,13,6.60
2015,10,15,00,14,6.60
2015,10,15,00,15,6.60
2015,10,15,00,16,6.60
2015,10,15,00,17,6.60
2015,10,15,00,18,6.50
2015,10,15,00,19,6.50
2015,10,15,00,20,6.50
2015,10,15,00,21,6.50
2015,10,15,00,22,6.40
2015,10,15,00,23,6.50
2015,10,15,00,24,6.50
2015,10,15,00,25,6.50
2015,10,15,00,26,6.50
2015,10,15,00,27,6.60
2015,10,15,00,28,6.50
2015,10,15,00,29,6.50
2015,10,15,00,30,6.50
2015,10,15,00,31,6.40
2015,10,15,00,32,6.40
2015,10,15,00,33,6.40
2015,10,15,00,34,6.40
2015,10,15,00,35,6.40
2015,10,15,00,36,6.40
2015,10,15,00,37,6.40
2015,10,15,00,38,6.30
2015,10,15,00,39,6.30
2015,10,15,00,40,6.30
2015,10,15,00,41,6.30
2015,10,15,00,42,6.30
2015,10,15,00,43,6.30
2015,10,15,00,44,6.30
2015,10,15,00,45,6.30
2015,10,15,00,46,6.30
2015,10,15,00,47,6.30
2015,10,15,00,48,6.30
2015,10,15,00,49,6.30
2015,10,15,00,50,6.40
2015,10,15,00,51,6.40
2015,10,15,00,52,6.50
2015,10,15,00,53,6.50
2015,10,15,00,54,6.60
2015,10,15,00,55,6.50
2015,10,15,00,56,6.50
2015,10,15,00,57,6.50
2015,10,15,00,58,6.40
2015,10,15,00,59,6.40
2015,10,15,01,00,6.30
2015,10,15,01,01,6.30
2015,10,15,01,02,6.30
2015,10,15,01,03,6.30
2015,10,15,01,04,6.30
2015,10,15,01,05,6.30
2015,10,15,01,06,6.30
2015,10,15,01,07,6.30
2015,10,15,01,08,6.30
2015,10,15,01,09,6.30
2015,10,15,01,10,6.30
2015,10,15,01,11,6.20
2015,10,15,01,12,6.20
2015,10,15,01,13,6.20
2015,10,15,01,14,6.20
2015,10,15,01,15,6.20
2015,10,15,01,16,6.20
2015,10,15,01,17,6.20
2015,10,15,01,18,6.20
2015,10,15,01,19,6.20
2015,10,15,01,20,6.10
2015,10,15,01,21,6.10
2015,10,15,01,22,6.10
2015,10,15,01,23,6.10
2015,10,15,01,24,6.10
2015,10,15,01,25,6.00
2015,10,15,01,26,6.00
2015,10,15,01,27,6.00
2015,10,15,01,28,6.00
2015,10,15,01,29,6.00
2015,10,15,01,30,6.10
2015,10,15,01,31,6.10
2015,10,15,01,32,6.20
2015,10,15,01,33,6.20
2015,10,15,01,34,6.20
2015,10,15,01,35,6.20
2015,10,15,01,36,6.20
2015,10,15,01,37,6.20
2015,10,15,01,38,6.20
2015,10,15,01,39,6.20
2015,10,15,01,40,6.30
2015,10,15,01,41,6.40
2015,10,15,01,42,6.50
2015,10,15,01,43,6.50
2015,10,15,01,44,6.60
2015,10,15,01,45,6.70
2015,10,15,01,46,6.70
2015,10,15,01,47,6.70
2015,10,15,01,48,6.70
2015,10,15,01,49,6.70
2015,10,15,01,50,6.70
2015,10,15,01,51,6.60
2015,10,15,01,52,6.60
2015,10,15,01,53,6.50
2015,10,15,01,54,6.40
2015,10,15,01,55,6.40
2015,10,15,01,56,6.30
2015,10,15,01,57,6.30
2015,10,15,01,58,6.20
2015,10,15,01,59,6.20
2015,10,15,02,00,6.20
2015,10,15,02,01,6.20
2015,10,15,02,02,6.20
2015,10,15,02,03,6.20
2015,10,15,02,04,6.20
2015,10,15,02,05,6.30
2015,10,15,02,06,6.30
2015,10,15,02,07,6.30
2015,10,15,02,08,6.30
2015,10,15,02,09,6.30
2015,10,15,02,10,6.20
2015,10,15,02,11,6.20
2015,10,15,02,12,6.20
2015,10,15,02,13,6.20
2015,10,15,02,14,6.10
2015,10,15,02,15,6.10
2015,10,15,02,16,6.10
2015,10,15,02,17,6.10
2015,10,15,02,18,6.10
2015,10,15,02,19,6.10
2015,10,15,02,20,6.10
2015,10,15,02,21,6.10
2015,10,15,02,22,6.00
2015,10,15,02,23,6.00
2015,10,15,02,24,6.00
2015,10,15,02,25,6.00
2015,10,15,02,26,6.00
2015,10,15,02,27,6.00
2015,10,15,02,28,6.00
2015,10,15,02,29,6.00
2015,10,15,02,30,5.90
2015,10,15,02,31,5.90
2015,10,15,02,32,5.90
2015,10,15,02,33,5.90
2015,10,15,02,34,5.90
2015,10,15,02,35,5.80
2015,10,15,02,36,5.90
2015,10,15,02,37,5.90
2015,10,15,02,38,5.90
2015,10,15,02,39,5.90
2015,10,15,02,40,6.00
2015,10,15,02,41,6.00
2015,10,15,02,42,6.10
2015,10,15,02,43,6.00
2015,10,15,02,44,6.00
2015,10,15,02,45,6.00
2015,10,15,02,46,5.90
2015,10,15,02,47,5.90
2015,10,15,02,48,5.90
2015,10,15,02,49,5.90
2015,10,15,02,50,5.90
2015,10,15,02,51,5.90
2015,10,15,02,52,5.90
2015,10,15,02,53,5.90
2015,10,15,02,54,5.80
2015,10,15,02,55,5.80
2015,10,15,02,56,5.80
2015,10,15,02,57,5.80
2015,10,15,02,58,5.70
2015,10,15,02,59,5.70
2015,10,15,03,00,5.60
2015,10,15,03,01,5.60
2015,10,15,03,02,5.60
2015,10,15,03,03,5.50
2015,10,15,03,04,5.50
2015,10,15,03,05,5.50
2015,10,15,03,06,5.50
2015,10,15,03,07,5.50
2015,10,15,03,08,5.50
2015,10,15,03,09,5.40
2015,10,15,03,10,5.40
2015,10,15,03,11,5.40
2015,10,15,03,12,5.40
2015,10,15,03,13,5.40
2015,10,15,03,14,5.40
2015,10,15,03,15,5.50
2015,10,15,03,16,5.50
2015,10,15,03,17,5.50
2015,10,15,03,18,5.50
2015,10,15,03,19,5.40
2015,10,15,03,20,5.40
2015,10,15,03,21,5.40
2015,10,15,03,22,5.40
2015,10,15,03,23,5.40
2015,10,15,03,24,5.40
2015,10,15,03,25,5.40
2015,10,15,03,26,5.30
2015,10,15,03,27,5.30
2015,10,15,03,28,5.30
2015,10,15,03,29,5.30
2015,10,15,03,30,5.30
2015,10,15,03,31,5.30
2015,10,15,03,32,5.30
2015,10,15,03,33,5.30
2015,10,15,03,34,5.30
2015,10,15,03,35,5.20
2015,10,15,03,36,5.20
2015,10,15,03,37,5.20
2015,10,15,03,38,5.20
2015,10,15,03,39,5.20
2015,10,15,03,40,5.20
2015,10,15,03,41,5.30
2015,10,15,03,42,5.30
2015,10,15,03,43,5.30
2015,10,15,03,44,5.30
2015,10,15,03,45,5.40
2015,10,15,03,46,5.40
2015,10,15,03,47,5.40
2015,10,15,03,48,5.50
2015,10,15,03,49,5.50
2015,10,15,03,50,5.50
2015,10,15,03,51,5.50
2015,10,15,03,52,5.50
2015,10,15,03,53,5.40
2015,10,15,03,54,5.40
2015,10,15,03,55,5.40
2015,10,15,03,56,5.40
2015,10,15,03,57,5.30
2015,10,15,03,58,5.30
2015,10,15,03,59,5.30
2015,10,15,04,00,5.30
2015,10,15,04,01,5.30
2015,10,15,04,02,5.40
2015,10,15,04,03,5.30
2015,10,15,04,04,5.30
2015,10,15,04,05,5.30
2015,10,15,04,06,5.30
2015,10,15,04,07,5.20
2015,10,15,04,08,5.20
2015,10,15,04,09,5.20
2015,10,15,04,10,5.20
2015,10,15,04,11,5.20
2015,10,15,04,12,5.20
2015,10,15,04,13,5.20
2015,10,15,04,14,5.20
2015,10,15,04,15,5.20
2015,10,15,04,16,5.10
2015,10,15,04,17,5.10
2015,10,15,04,18,5.10
2015,10,15,04,19,5.10
2015,10,15,04,20,5.10
2015,10,15,04,21,5.10
2015,10,15,04,22,5.10
2015,10,15,04,23,5.10
2015,10,15,04,24,5.10
2015,10,15,04,25,5.10
2015,10,15,04,26,5.10
2015,10,15,04,27,5.10
2015,10,15,04,28,5.10
2015,10,15,04,29,5.10
2015,10,15,04,30,5.10
2015,10,15,04,31,5.10
2015,10,15,04,32,5.10
2015,10,15,04,33,5.10
2015,10,15,04,34,5.10
2015,10,15,04,35,5.00
2015,10,15,04,36,5.00
2015,10,15,04,37,5.00
2015,10,15,04,38,5.00
2015,10,15,04,39,5.00
2015,10,15,04,40,5.00
2015,10,15,04,41,5.00
2015,10,15,04,42,5.00
2015,10,15,04,43,5.00
2015,10,15,04,44,5.00
2015,10,15,04,45,5.00
2015,10,15,04,46,5.00
2015,10,15,04,47,4.90
2015,10,15,04,48,4.90
2015,10,15,04,49,4.90
2015,10,15,04,50,4.90
2015,10,15,04,51,4.90
2015,10,15,04,52,4.80
2015,10,15,04,53,4.80
2015,10,15,04,54,4.80
2015,10,15,04,55,4.80
2015,10,15,04,56,4.80
2015,10,15,04,57,4.70
2015,10,15,04,58,4.70
2015,10,15,04,59,4.70
2015,10,15,05,00,4.70
2015,10,15,05,01,4.70
2015,10,15,05,02,4.70
2015,10,15,05,03,4.70
2015,10,15,05,04,4.70
2015,10,15,05,05,4.70
2015,10,15,05,06,4.70
2015,10,15,05,07,4.70
2015,10,15,05,08,4.70
2015,10,15,05,09,4.70
2015,10,15,05,10,4.70
2015,10,15,05,11,4.70
2015,10,15,05,12,4.60
2015,10,15,05,13,4.60
2015,10,15,05,14,4.60
2015,10,15,05,15,4.60
2015,10,15,05,16,4.60
2015,10,15,05,17,4.50
2015,10,15,05,18,4.50
2015,10,15,05,19,4.50
2015,10,15,05,20,4.50
2015,10,15,05,21,4.40
2015,10,15,05,22,4.40
2015,10,15,05,23,4.40
2015,10,15,05,24,4.40
2015,10,15,05,25,4.40
2015,10,15,05,26,4.40
2015,10,15,05,27,4.40
2015,10,15,05,28,4.40
2015,10,15,05,29,4.40
2015,10,15,05,30,4.40
2015,10,15,05,31,4.40
2015,10,15,05,32,4.40
2015,10,15,05,33,4.40
2015,10,15,05,34,4.40
2015,10,15,05,35,4.40
2015,10,15,05,36,4.40
2015,10,15,05,37,4.40
2015,10,15,05,38,4.40
2015,10,15,05,39,4.40
2015,10,15,05,40,4.40
2015,10,15,05,41,4.40
2015,10,15,05,42,4.30
2015,10,15,05,43,4.30
2015,10,15,05,44,4.30
2015,10,15,05,45,4.30
2015,10,15,05,46,4.30
2015,10,15,05,47,4.30
2015,10,15,05,48,4.30
2015,10,15,05,49,4.30
2015,10,15,05,50,4.40
2015,10,15,05,51,4.40
2015,10,15,05,52,4.40
2015,10,15,05,53,4.40
2015,10,15,05,54,4.40
2015,10,15,05,55,4.30
2015,10,15,05,56,4.30
2015,10,15,05,57,4.30
2015,10,15,05,58,4.30
2015,10,15,05,59,4.20
2015,10,15,06,00,4.20
2015,10,15,06,01,4.20
2015,10,15,06,02,4.20
2015,10,15,06,03,4.20
2015,10,15,06,04,4.20
2015,10,15,06,05,4.20
2015,10,15,06,06,4.10
2015,10,15,06,07,4.10
2015,10,15,06,08,4.10
2015,10,15,06,09,4.10
2015,10,15,06,10,4.10
2015,10,15,06,11,4.10
2015,10,15,06,12,4.10
2015,10,15,06,13,4.10
2015,10,15,06,14,4.10
2015,10,15,06,15,4.10
2015,10,15,06,16,4.00
2015,10,15,06,17,4.00
2015,10,15,06,18,4.00
2015,10,15,06,19,4.10
2015,10,15,06,20,4.00
2015,10,15,06,21,4.10
2015,10,15,06,22,4.10
2015,10,15,06,23,4.10
2015,10,15,06,24,4.10
2015,10,15,06,25,4.10
2015,10,15,06,26,4.10
2015,10,15,06,27,4.10
2015,10,15,06,28,4.10
2015,10,15,06,29,4.10
2015,10,15,06,30,4.10
2015,10,15,06,31,4.10
2015,10,15,06,32,4.10
2015,10,15,06,33,4.10
2015,10,15,06,34,4.10
2015,10,15,06,35,4.10
2015,10,15,06,36,4.20
2015,10,15,06,37,4.20
2015,10,15,06,38,4.10
2015,10,15,06,39,4.10
2015,10,15,06,40,4.10
2015,10,15,06,41,4.10
2015,10,15,06,42,4.10
2015,10,15,06,43,4.10
2015,10,15,06,44,4.00
2015,10,15,06,45,4.00
2015,10,15,06,46,4.00
2015,10,15,06,47,3.90
2015,10,15,06,48,3.90
2015,10,15,06,49,3.90
2015,10,15,06,50,3.90
2015,10,15,06,51,3.90
2015,10,15,06,52,3.90
2015,10,15,06,53,3.90
2015,10,15,06,54,3.90
2015,10,15,06,55,3.90
2015,10,15,06,56,3.90
2015,10,15,06,57,3.90
2015,10,15,06,58,3.90
2015,10,15,06,59,3.90
2015,10,15,07,00,3.90
2015,10,15,07,01,3.90
2015,10,15,07,02,3.90
2015,10,15,07,03,3.90
2015,10,15,07,04,3.90
2015,10,15,07,05,3.90
2015,10,15,07,06,3.90
2015,10,15,07,07,4.00
2015,10,15,07,08,4.00
2015,10,15,07,09,4.00
2015,10,15,07,10,4.00
2015,10,15,07,11,4.00
2015,10,15,07,12,4.00
2015,10,15,07,13,3.90
2015,10,15,07,14,3.90
2015,10,15,07,15,3.90
2015,10,15,07,16,3.90
2015,10,15,07,17,3.90
2015,10,15,07,18,3.90
2015,10,15,07,19,3.90
2015,10,15,07,20,3.80
2015,10,15,07,21,3.80
2015,10,15,07,22,3.80
2015,10,15,07,23,3.80
2015,10,15,07,24,3.80
2015,10,15,07,25,3.80
2015,10,15,07,26,3.80
2015,10,15,07,27,3.80
2015,10,15,07,28,3.80
2015,10,15,07,29,3.80
2015,10,15,07,30,3.80
2015,10,15,07,31,3.80
2015,10,15,07,32,3.80
2015,10,15,07,33,3.80
2015,10,15,07,34,3.80
2015,10,15,07,35,3.80
2015,10,15,07,36,3.80
2015,10,15,07,37,3.80
2015,10,15,07,38,3.80
2015,10,15,07,39,3.80
2015,10,15,07,40,3.80
2015,10,15,07,41,3.80
2015,10,15,07,42,3.80
2015,10,15,07,43,3.80
2015,10,15,07,44,3.80
2015,10,15,07,45,3.80
2015,10,15,07,46,3.80
2015,10,15,07,47,3.80
2015,10,15,07,48,3.80
2015,10,15,07,49,3.80
2015,10,15,07,50,3.80
2015,10,15,07,51,3.80
2015,10,15,07,52,3.80
2015,10,15,07,53,3.80
2015,10,15,07,54,3.80
2015,10,15,07,55,3.80
2015,10,15,07,56,3.70
2015,10,15,07,57,3.80
2015,10,15,07,58,3.80
2015,10,15,07,59,3.70
2015,10,15,08,00,3.80
2015,10,15,08,01,3.70
2015,10,15,08,02,3.70
2015,10,15,08,03,3.70
2015,10,15,08,04,3.70
2015,10,15,08,05,3.70
2015,10,15,08,06,3.70
2015,10,15,08,07,3.70
2015,10,15,08,08,3.70
2015,10,15,08,09,3.70
2015,10,15,08,10,3.70
2015,10,15,08,11,3.70
2015,10,15,08,12,3.70
2015,10,15,08,13,3.70
2015,10,15,08,14,3.70
2015,10,15,08,15,3.80
2015,10,15,08,16,3.80
2015,10,15,08,17,3.80
2015,10,15,08,18,3.80
2015,10,15,08,19,3.80
2015,10,15,08,20,3.80
2015,10,15,08,21,3.80
2015,10,15,08,22,3.80
2015,10,15,08,23,3.80
2015,10,15,08,24,3.80
2015,10,15,08,25,3.80
2015,10,15,08,26,3.80
2015,10,15,08,27,3.80
2015,10,15,08,28,3.80
2015,10,15,08,29,3.80
2015,10,15,08,30,3.80
2015,10,15,08,31,3.80
2015,10,15,08,32,3.90
2015,10,15,08,33,3.90
2015,10,15,08,34,3.90
2015,10,15,08,35,3.90
2015,10,15,08,36,3.90
2015,10,15,08,37,4.00
2015,10,15,08,38,4.00
2015,10,15,08,39,4.00
2015,10,15,08,40,4.10
2015,10,15,08,41,4.10
2015,10,15,08,42,4.10
2015,10,15,08,43,4.10
2015,10,15,08,44,4.10
2015,10,15,08,45,4.10
2015,10,15,08,46,4.10
2015,10,15,08,47,4.10
2015,10,15,08,48,4.10
2015,10,15,08,49,4.20
2015,10,15,08,50,4.20
2015,10,15,08,51,4.20
2015,10,15,08,52,4.20
2015,10,15,08,53,4.30
2015,10,15,08,54,4.30
2015,10,15,08,55,4.30
2015,10,15,08,56,4.40
2015,10,15,08,57,4.40
2015,10,15,08,58,4.40
2015,10,15,08,59,4.50
2015,10,15,09,00,4.50
2015,10,15,09,01,4.50
2015,10,15,09,02,4.60
2015,10,15,09,03,4.60
2015,10,15,09,04,4.70
2015,10,15,09,05,4.70
2015,10,15,09,06,4.70
2015,10,15,09,07,4.80
2015,10,15,09,08,4.80
2015,10,15,09,09,4.80
2015,10,15,09,10,4.90
2015,10,15,09,11,4.90
2015,10,15,09,12,5.10
2015,10,15,09,13,5.20
2015,10,15,09,14,5.30
2015,10,15,09,15,5.40
2015,10,15,09,16,5.50
2015,10,15,09,17,5.60
2015,10,15,09,18,5.70
2015,10,15,09,19,5.80
2015,10,15,09,20,5.80
2015,10,15,09,21,5.90
2015,10,15,09,22,6.00
2015,10,15,09,23,6.10
2015,10,15,09,24,6.20
2015,10,15,09,25,6.30
2015,10,15,09,26,6.40
2015,10,15,09,27,6.50
2015,10,15,09,28,6.50
2015,10,15,09,29,6.60
2015,10,15,09,30,6.60
2015,10,15,09,31,6.70
2015,10,15,09,32,6.70
2015,10,15,09,33,6.80
2015,10,15,09,34,6.80
2015,10,15,09,35,6.90
2015,10,15,09,36,6.90
2015,10,15,09,37,7.00
2015,10,15,09,38,7.10
2015,10,15,09,39,7.10
2015,10,15,09,40,7.20
2015,10,15,09,41,7.30
2015,10,15,09,42,7.40
2015,10,15,09,43,7.50
2015,10,15,09,44,7.50
2015,10,15,09,45,7.60
2015,10,15,09,46,7.70
2015,10,15,09,47,7.70
2015,10,15,09,48,7.70
2015,10,15,09,49,7.70
2015,10,15,09,50,7.80
2015,10,15,09,51,7.80
2015,10,15,09,52,7.80
2015,10,15,09,53,7.90
2015,10,15,09,54,7.90
2015,10,15,09,55,8.00
2015,10,15,09,56,8.00
2015,10,15,09,57,8.10
2015,10,15,09,58,8.10
2015,10,15,09,59,8.10
2015,10,15,10,00,8.20
2015,10,15,10,01,8.20
2015,10,15,10,02,8.20
2015,10,15,10,03,8.30
2015,10,15,10,04,8.30
2015,10,15,10,05,8.30
2015,10,15,10,06,8.30
2015,10,15,10,07,8.30
2015,10,15,10,08,8.30
2015,10,15,10,09,8.40
2015,10,15,10,10,8.40
2015,10,15,10,11,8.40
2015,10,15,10,12,8.40
2015,10,15,10,13,8.40
2015,10,15,10,14,8.40
2015,10,15,10,15,8.40
2015,10,15,10,16,8.40
2015,10,15,10,17,8.50
2015,10,15,10,18,8.50
2015,10,15,10,19,8.50
2015,10,15,10,20,8.50
2015,10,15,10,21,8.60
2015,10,15,10,22,8.60
2015,10,15,10,23,8.70
2015,10,15,10,24,8.70
2015,10,15,10,25,8.70
2015,10,15,10,26,8.80
2015,10,15,10,27,8.80
2015,10,15,10,28,8.90
2015,10,15,10,29,8.90
2015,10,15,10,30,9.00
2015,10,15,10,31,9.00
2015,10,15,10,32,9.10
2015,10,15,10,33,9.10
2015,10,15,10,34,9.20
2015,10,15,10,35,9.20
2015,10,15,10,36,9.20
2015,10,15,10,37,9.30
2015,10,15,10,38,9.30
2015,10,15,10,39,9.30
2015,10,15,10,40,9.30
2015,10,15,10,41,9.30
2015,10,15,10,42,9.30
2015,10,15,10,43,9.30
2015,10,15,10,44,9.30
2015,10,15,10,45,9.30
2015,10,15,10,46,9.30
2015,10,15,10,47,9.40
2015,10,15,10,48,9.40
2015,10,15,10,49,9.40
2015,10,15,10,50,9.40
2015,10,15,10,51,9.50
2015,10,15,10,52,9.50
2015,10,15,10,53,9.50
2015,10,15,10,54,9.60
2015,10,15,10,55,9.60
2015,10,15,10,56,9.70
2015,10,15,10,57,9.70
2015,10,15,10,58,9.70
2015,10,15,10,59,9.80
2015,10,15,11,00,9.80
2015,10,15,11,01,9.90
2015,10,15,11,02,9.90
2015,10,15,11,03,10.00
2015,10,15,11,04,10.10
2015,10,15,11,05,10.10
2015,10,15,11,06,10.20
2015,10,15,11,07,10.20
2015,10,15,11,08,10.30
2015,10,15,11,09,10.30
2015,10,15,11,10,10.40
2015,10,15,11,11,10.40
2015,10,15,11,12,10.50
2015,10,15,11,13,10.50
2015,10,15,11,14,10.60
2015,10,15,11,15,10.60
2015,10,15,11,16,10.70
2015,10,15,11,17,10.70
2015,10,15,11,18,10.70
2015,10,15,11,19,10.80
2015,10,15,11,20,10.80
2015,10,15,11,21,10.90
2015,10,15,11,22,11.00
2015,10,15,11,23,11.10
2015,10,15,11,24,11.20
2015,10,15,11,25,11.20
2015,10,15,11,26,11.30
2015,10,15,11,27,11.40
2015,10,15,11,28,11.50
2015,10,15,11,29,11.60
2015,10,15,11,30,11.70
2015,10,15,11,31,11.80
2015,10,15,11,32,11.90
2015,10,15,11,33,12.00
2015,10,15,11,34,12.00
2015,10,15,11,35,12.10
2015,10,15,11,36,12.20
2015,10,15,11,37,12.20
2015,10,15,11,38,12.30
2015,10,15,11,39,12.40
2015,10,15,11,40,12.50
2015,10,15,11,41,12.60
2015,10,15,11,42,12.60
2015,10,15,11,43,12.70
2015,10,15,11,44,12.60
2015,10,15,11,45,12.60
2015,10,15,11,46,12.60
2015,10,15,11,47,12.60
2015,10,15,11,48,12.60
2015,10,15,11,49,12.60
2015,10,15,11,50,12.50
2015,10,15,11,51,12.50
2015,10,15,11,52,12.60
2015,10,15,11,53,12.60
2015,10,15,11,54,12.60
2015,10,15,11,55,12.60
2015,10,15,11,56,12.60
2015,10,15,11,57,12.60
2015,10,15,11,58,12.60
2015,10,15,11,59,12.60
2015,10,15,12,00,12.70
2015,10,15,12,01,12.70
2015,10,15,12,02,12.70
2015,10,15,12,03,12.70
2015,10,15,12,04,12.70
2015,10,15,12,05,12.70
2015,10,15,12,06,12.80
2015,10,15,12,07,12.80
2015,10,15,12,08,12.80
2015,10,15,12,09,12.80
2015,10,15,12,10,12.80
2015,10,15,12,11,12.80
2015,10,15,12,12,12.80
2015,10,15,12,13,12.80
2015,10,15,12,14,12.80
2015,10,15,12,15,12.80
2015,10,15,12,16,12.90
2015,10,15,12,17,12.90
2015,10,15,12,18,13.00
2015,10,15,12,19,13.00
2015,10,15,12,20,13.10
2015,10,15,12,21,13.10
2015,10,15,12,22,13.20
2015,10,15,12,23,13.20
2015,10,15,12,24,13.20
2015,10,15,12,25,13.30
2015,10,15,12,26,13.40
2015,10,15,12,27,13.40
2015,10,15,12,28,13.50
2015,10,15,12,29,13.50
2015,10,15,12,30,13.60
2015,10,15,12,31,13.60
2015,10,15,12,32,13.60
2015,10,15,12,33,13.60
2015,10,15,12,34,13.60
2015,10,15,12,35,13.60
2015,10,15,12,36,13.60
2015,10,15,12,37,13.60
2015,10,15,12,38,13.60
2015,10,15,12,39,13.60
2015,10,15,12,40,13.60
2015,10,15,12,41,13.70
2015,10,15,12,42,13.70
2015,10,15,12,43,13.70
2015,10,15,12,44,13.80
2015,10,15,12,45,13.80
2015,10,15,12,46,13.80
2015,10,15,12,47,13.90
2015,10,15,12,48,13.90
2015,10,15,12,49,13.90
2015,10,15,12,50,13.90
2015,10,15,12,51,13.90
2015,10,15,12,52,14.00
2015,10,15,12,53,14.00
2015,10,15,12,54,14.10
2015,10,15,12,55,14.10
2015,10,15,12,56,14.10
2015,10,15,12,57,14.20
2015,10,15,12,58,14.20
2015,10,15,12,59,14.30
2015,10,15,13,00,14.30
2015,10,15,13,01,14.40
2015,10,15,13,02,14.40
2015,10,15,13,03,14.40
2015,10,15,13,04,14.50
2015,10,15,13,05,14.50
2015,10,15,13,06,14.60
2015,10,15,13,07,14.60
2015,10,15,13,08,14.60
2015,10,15,13,09,14.60
2015,10,15,13,10,14.70
2015,10,15,13,11,14.70
2015,10,15,13,12,14.80
2015,10,15,13,13,14.80
2015,10,15,13,14,14.90
2015,10,15,13,15,14.90
2015,10,15,13,16,15.00
2015,10,15,13,17,15.00
2015,10,15,13,18,15.10
2015,10,15,13,19,15.10
2015,10,15,13,20,15.10
2015,10,15,13,21,15.20
2015,10,15,13,22,15.20
2015,10,15,13,23,15.30
2015,10,15,13,24,15.30
2015,10,15,13,25,15.30
2015,10,15,13,26,15.40
2015,10,15,13,27,15.40
2015,10,15,13,28,15.40
2015,10,15,13,29,15.40
2015,10,15,13,30,15.40
2015,10,15,13,31,15.40
2015,10,15,13,32,15.30
2015,10,15,13,33,15.30
2015,10,15,13,34,15.30
2015,10,15,13,35,15.30
2015,10,15,13,36,15.30
2015,10,15,13,37,15.30
2015,10,15,13,38,15.30
2015,10,15,13,39,15.30
2015,10,15,13,40,15.30
2015,10,15,13,41,15.30
2015,10,15,13,42,15.30
2015,10,15,13,43,15.30
2015,10,15,13,44,15.30
2015,10,15,13,45,15.40
2015,10,15,13,46,15.40
2015,10,15,13,47,15.40
2015,10,15,13,48,15.40
2015,10,15,13,49,15.40
2015,10,15,13,50,15.50
2015,10,15,13,51,15.50
2015,10,15,13,52,15.60
2015,10,15,13,53,15.60
2015,10,15,13,54,15.60
2015,10,15,13,55,15.60
2015,10,15,13,56,15.70
2015,10,15,13,57,15.70
2015,10,15,13,58,15.70
2015,10,15,13,59,15.70
2015,10,15,14,00,15.70
2015,10,15,14,01,15.70
2015,10,15,14,02,15.70
2015,10,15,14,03,15.70
2015,10,15,14,04,15.70
2015,10,15,14,05,15.70
2015,10,15,14,06,15.80
2015,10,15,14,07,15.80
2015,10,15,14,08,15.80
2015,10,15,14,09,15.80
2015,10,15,14,10,15.80
2015,10,15,14,11,15.80
2015,10,15,14,12,15.80
2015,10,15,14,13,15.80
2015,10,15,14,14,15.80
2015,10,15,14,15,15.80
2015,10,15,14,16,15.80
2015,10,15,14,17,15.80
2015,10,15,14,18,15.80
2015,10,15,14,19,15.80
2015,10,15,14,20,15.80
2015,10,15,14,21,15.80
2015,10,15,14,22,15.90
2015,10,15,14,23,15.90
2015,10,15,14,24,16.00
2015,10,15,14,25,16.00
2015,10,15,14,26,16.00
2015,10,15,14,27,16.00
2015,10,15,14,28,16.00
2015,10,15,14,29,15.90
2015,10,15,14,30,15.90
2015,10,15,14,31,15.90
2015,10,15,14,32,15.90
2015,10,15,14,33,15.90
2015,10,15,14,34,15.90
2015,10,15,14,35,15.90
2015,10,15,14,36,15.90
2015,10,15,14,37,15.90
2015,10,15,14,38,15.90
2015,10,15,14,39,15.90
2015,10,15,14,40,15.90
2015,10,15,14,41,15.90
2015,10,15,14,42,15.90
2015,10,15,14,43,15.90
2015,10,15,14,44,15.90
2015,10,15,14,45,15.90
2015,10,15,14,46,15.90
2015,10,15,14,47,15.90
2015,10,15,14,48,15.90
2015,10,15,14,49,15.90
2015,10,15,14,50,15.90
2015,10,15,14,51,15.90
2015,10,15,14,52,16.00
2015,10,15,14,53,16.00
2015,10,15,14,54,16.00
2015,10,15,14,55,16.00
2015,10,15,14,56,16.00
2015,10,15,14,57,16.10
2015,10,15,14,58,16.10
2015,10,15,14,59,16.00
2015,10,15,15,00,16.00
2015,10,15,15,01,16.00
2015,10,15,15,02,16.00
2015,10,15,15,03,16.00
2015,10,15,15,04,16.00
2015,10,15,15,05,16.00
2015,10,15,15,06,16.00
2015,10,15,15,07,16.00
2015,10,15,15,08,15.90
2015,10,15,15,09,15.90
2015,10,15,15,10,15.90
2015,10,15,15,11,15.80
2015,10,15,15,12,15.80
2015,10,15,15,13,15.80
2015,10,15,15,14,15.80
2015,10,15,15,15,15.70
2015,10,15,15,16,15.70
2015,10,15,15,17,15.70
2015,10,15,15,18,15.70
2015,10,15,15,19,15.70
2015,10,15,15,20,15.70
2015,10,15,15,21,15.70
2015,10,15,15,22,15.70
2015,10,15,15,23,15.70
2015,10,15,15,24,15.70
2015,10,15,15,25,15.70
2015,10,15,15,26,15.70
2015,10,15,15,27,15.80
2015,10,15,15,28,15.80
2015,10,15,15,29,15.80
2015,10,15,15,30,15.80
2015,10,15,15,31,15.80
2015,10,15,15,32,15.90
2015,10,15,15,33,15.90
2015,10,15,15,34,15.90
2015,10,15,15,35,15.90
2015,10,15,15,36,15.90
2015,10,15,15,37,15.90
2015,10,15,15,38,15.90
2015,10,15,15,39,15.90
2015,10,15,15,40,15.90
2015,10,15,15,41,15.90
2015,10,15,15,42,15.90
2015,10,15,15,43,15.90
2015,10,15,15,44,15.90
2015,10,15,15,45,15.90
2015,10,15,15,46,15.90
2015,10,15,15,47,15.90
2015,10,15,15,48,15.90
2015,10,15,15,49,15.90
2015,10,15,15,50,15.90
2015,10,15,15,51,15.90
2015,10,15,15,52,15.90
2015,10,15,15,53,15.90
2015,10,15,15,54,15.90
2015,10,15,15,55,16.00
2015,10,15,15,56,16.00
2015,10,15,15,57,16.00
2015,10,15,15,58,16.00
2015,10,15,15,59,16.00
2015,10,15,16,00,16.00
2015,10,15,16,01,16.00
2015,10,15,16,02,15.90
2015,10,15,16,03,15.90
2015,10,15,16,04,15.90
2015,10,15,16,05,15.90
2015,10,15,16,06,15.90
2015,10,15,16,07,15.90
2015,10,15,16,08,15.90
2015,10,15,16,09,15.90
2015,10,15,16,10,15.90
2015,10,15,16,11,15.90
2015,10,15,16,12,15.90
2015,10,15,16,13,15.90
2015,10,15,16,14,15.90
2015,10,15,16,15,15.90
2015,10,15,16,16,15.90
2015,10,15,16,17,15.90
2015,10,15,16,18,15.90
2015,10,15,16,19,15.90
2015,10,15,16,20,15.90
2015,10,15,16,21,16.00
2015,10,15,16,22,16.00
2015,10,15,16,23,16.00
2015,10,15,16,24,16.00
2015,10,15,16,25,16.00
2015,10,15,16,26,16.10
2015,10,15,16,27,16.10
2015,10,15,16,28,16.10
2015,10,15,16,29,16.10
2015,10,15,16,30,16.10
2015,10,15,16,31,16.10
2015,10,15,16,32,16.10
2015,10,15,16,33,16.10
2015,10,15,16,34,16.10
2015,10,15,16,35,16.10
2015,10,15,16,36,16.10
2015,10,15,16,37,16.10
2015,10,15,16,38,16.10
2015,10,15,16,39,16.10
2015,10,15,16,40,16.20
2015,10,15,16,41,16.20
2015,10,15,16,42,16.20
2015,10,15,16,43,16.20
2015,10,15,16,44,16.20
2015,10,15,16,45,16.10
2015,10,15,16,46,16.10
2015,10,15,16,47,16.10
2015,10,15,16,48,16.10
2015,10,15,16,49,16.10
2015,10,15,16,50,16.10
2015,10,15,16,51,16.10
2015,10,15,16,52,16.10
2015,10,15,16,53,16.10
2015,10,15,16,54,16.10
2015,10,15,16,55,16.10
2015,10,15,16,56,16.10
2015,10,15,16,57,16.10
2015,10,15,16,58,16.10
2015,10,15,16,59,16.10
2015,10,15,17,00,16.10
2015,10,15,17,01,16.10
2015,10,15,17,02,16.10
2015,10,15,17,03,16.10
2015,10,15,17,04,16.10
2015,10,15,17,05,16.10
2015,10,15,17,06,16.10
2015,10,15,17,07,16.10
2015,10,15,17,08,16.10
2015,10,15,17,09,16.10
2015,10,15,17,10,16.10
2015,10,15,17,11,16.10
2015,10,15,17,12,16.10
2015,10,15,17,13,16.10
2015,10,15,17,14,16.10
2015,10,15,17,15,16.10
2015,10,15,17,16,16.10
2015,10,15,17,17,16.00
2015,10,15,17,18,16.00
2015,10,15,17,19,16.00
2015,10,15,17,20,16.00
2015,10,15,17,21,16.00
2015,10,15,17,22,16.00
2015,10,15,17,23,16.00
2015,10,15,17,24,15.90
2015,10,15,17,25,15.90
2015,10,15,17,26,15.90
2015,10,15,17,27,15.80
2015,10,15,17,28,15.80
2015,10,15,17,29,15.80
2015,10,15,17,30,15.80
2015,10,15,17,31,15.80
2015,10,15,17,32,15.80
2015,10,15,17,33,15.70
2015,10,15,17,34,15.70
2015,10,15,17,35,15.60
2015,10,15,17,36,15.60
2015,10,15,17,37,15.60
2015,10,15,17,38,15.50
2015,10,15,17,39,15.50
2015,10,15,17,40,15.40
2015,10,15,17,41,15.30
2015,10,15,17,42,15.30
2015,10,15,17,43,15.20
2015,10,15,17,44,15.20
2015,10,15,17,45,15.10
2015,10,15,17,46,15.10
2015,10,15,17,47,15.00
2015,10,15,17,48,14.90